Location: Goettingen
(51.5300°N, 9.9433°E)
Time: 05:08:19
(UTC+02:00)

ISS - Pass Details

Date: 01 April 2020
Orbit: 417 x 423 km, 51.6° (Epoch: 29 March)

Event Time Altitude Azimuth Distance (km) Brightness Sun altitude
Rises 20:57:05 0° 284° (WNW) 2,362 2.2 -10.2°
Reaches altitude 10° 20:59:13 10° 278° (W) 1,497 0.5 -10.5°
Maximum altitude 21:02:27 45° 204° (SSW) 576 -3.1 -11.0°
Enters shadow 21:04:47 17° 135° (SE) 1,153 -2.1 -11.3°
